Location: Bonny Doon Airfield
(37.0704°N, 122.1252°W)
Time: 12:57:55
(UTC-08:00)

Vanguard 1 Rocket - Pass Details

Date: 25 October 2017
Orbit: 655 x 4222 km, 34.3° (Epoch: 21 November)

Event Time Altitude Azimuth Distance (km) Brightness Sun altitude
Rises 04:52:21 0° 222° (SW) 7,330 - -31.2°
Reaches altitude 10° 04:58:32 10° 216° (SW) 5,730 - -30.0°
Exits shadow 05:00:39 14° 212° (SSW) 5,165 10.9 -29.6°
Maximum altitude 05:11:41 35° 158° (SSE) 2,680 9.8 -27.4°
Drops below altitude 10° 05:19:09 10° 95° (E) 3,252 11.2 -25.9°
Sets 05:21:37 0° 86° (E) 3,913 12.0 -25.4°
